STARLINK-2480 (48137 NORAD) Tracking and Keplerian Element Data

This shows tracking and keplerian element data for the satellite.

Feedback or suggestion? Click here.




ElementValue
Catalog48137
NameSTARLINK-2480
Epoch Orbit180
Epoch Day136.75001157
Epoch Year2021
RAAN146.2306
Inclination53.0476
Eccentricity0.0002886
Argument of Perigee29.7335
Mean Anonmoly7.1617
Mean Motion15.73209382
Decay Rate9.096E-05
L11 48137U 21027AX 21136.75001157 .00009096 00000-0 69130-4 0 9991
L22 48137 53.0476 146.2306 0002886 29.7335 7.1617 15.73209382 1806

Live tracking and technical data element details for STARLINK-2480 (NORAD 48137). STARLINK-2480 can be tracked NOW for your location showing map with azimuth and elevation plus other details from your city location.

Track the satellite on the map from your city or location and see movement details for azimuth, elevation, latitude, longitude, range, height, and movement on the map or in text.







IsCatalogInMostPopularTable: catalog: 48137, numindb: 16
Update: records affected: 1



GetName: 48137 STARLINK-2480

Hit Count: updated at: Mon, 17 May 2021 15:13:11 GMT